Tracking 28096 objects as of 29-Sep-2023
HD Live streaming from Space Station
objects crossing your sky now

STARLINK-6181

Track STARLINK-6181 now!
10-day predictions
STARLINK-6181 is classified as:


NORAD ID: 56888
Int'l Code: 2023-083N
Perigee: 565.3 km
Apogee: 567.2 km
Inclination: 43.0 °
Period: 95.8 minutes
Semi major axis: 6937 km
RCS: Unknown
Launch date: June 12, 2023
Source: United States (US)
Launch site: AIR FORCE EASTERN TEST RANGE (AFETR)
Your satellite tracking list
Your tracking list is empty




NASA's NSSDC Master Catalog

Two Line Element Set (TLE):
1 56888U 23083N   23271.37126659 -.00001646  00000-0 -10683-3 0  9995
2 56888  43.0015 255.6825 0001339 267.7472  92.3217 15.02534122 17292
Source of the keplerian elements: AFSPC